This is the latest recevied weather packets stored in our database for station/object K5WRW-WX. If no packets are shown the sender has not sent any weather packets the latest 10 day(s).
| Time | Temp. | Humidity | Pressure | Rain* | Wind** | Luminosity | Snow |
|---|---|---|---|---|---|---|---|
| 1777525217 | 16.11° C | 74% | 1014.6 hPa | 0 mm | - | - | - |
| 1777522817 | 16.67° C | 74% | 1014.5 hPa | 0 mm | - | - | - |
| 1777521017 | 16.67° C | 75% | 1014.5 hPa | 0 mm | - | - | - |
| 1777516216 | 17.22° C | 79% | 1014 hPa | 0 mm | - | - | - |
| 1777515017 | 17.22° C | 79% | 1013.7 hPa | 0 mm | - | - | - |
| 1777513816 | 17.22° C | 79% | 1013.1 hPa | 0 mm | - | - | - |
| 1777505416 | 17.22° C | 76% | 1012.3 hPa | 0 mm | - | - | - |
| 1777502416 | 17.78° C | 75% | 1012.1 hPa | 0 mm | - | - | - |
| 1777500016 | 17.22° C | 75% | 1012.1 hPa | 0 mm | - | - | - |
| 1777497616 | 17.22° C | 75% | 1012.5 hPa | 0 mm | - | - | - |
| 1777489216 | 16.11° C | 77% | 1013.5 hPa | 0 mm | - | - | - |
| 1777485615 | 16.67° C | 76% | 1014.7 hPa | 0 mm | - | - | - |
| 1777485016 | 16.67° C | 76% | 1014.9 hPa | 0 mm | - | - | - |
| 1777482018 | 16.67° C | 78% | 1014.9 hPa | 0 mm | - | - | - |
| 1777480817 | 16.11° C | 75% | 1015.3 hPa | 0 mm | - | - | - |
| 1777471217 | 13.89° C | 84% | 1015.2 hPa | 0 mm | - | - | - |
| 1777465217 | 13.89° C | 82% | 1014.6 hPa | 0 mm | - | - | - |
| 1777464637 | 13.89° C | 82% | 1014.2 hPa | 0 mm | - | - | - |
| 1777464016 | 13.89° C | 82% | 1013.9 hPa | 0 mm | - | - | - |
| 1777462817 | 13.89° C | 82% | 1013.9 hPa | 0 mm | - | - | - |
| 1777461616 | 13.89° C | 82% | 1013.8 hPa | 0 mm | - | - | - |
| 1777459817 | 13.89° C | 83% | 1013.7 hPa | 0 mm | - | - | - |
| 1777457416 | 13.89° C | 84% | 1013.4 hPa | 0 mm | - | - | - |
| 1777456816 | 13.89° C | 83% | 1013.3 hPa | 0 mm | - | - | - |
| 1777438816 | 17.78° C | 82% | 1013 hPa | 0 mm | - | - | - |
* Rain latest hour (hover to see other rain measurements)
** Current wind speed in m/s (hover to see current wind gust speed)